Location: �terpigny
(49.8910°N, 2.9249°E)
Time: 11:46:03
(UTC+00:00)

CUBESAT XI-V - Pass Details

Date: 02 July 2022
Orbit: 668 x 690 km, 98.1° (Epoch: 17 August)

Event Time Altitude Azimuth Distance (km) Brightness Sun altitude
Exits shadow 00:16:48 - 123° (ESE) 2,433 ? -16.9°
Reaches altitude 10° 00:17:45 10° 117° (ESE) 2,106 ? -16.8°
Maximum altitude 00:21:30 26° 62° (ENE) 1,336 ? -16.8°
Drops below altitude 10° 00:25:16 10° 8° (N) 2,110 ? -16.7°
Sets 00:27:48 0° 355° (N) 3,027 ? -16.6°
